Location: Aldenham
(51.6667°N, 0.3500°W)
Time: 18:12:59
(UTC+00:00)

Explorer 7 - Pass Details

Date: 19 February 2026
Orbit: 430 x 542 km, 50.2° (Epoch: 8 March)

Event Time Altitude Azimuth Distance (km) Brightness Sun altitude
Rises 20:56:03 0° 275° (W) 2,560 11.2 -32.9°
Enters shadow 20:58:41 - 253° (WSW) 1,842 10.0 -33.3°
Reaches altitude 10° 20:59:29 10° 243° (WSW) 1,706 - -33.4°
Maximum altitude 21:00:52 12° 221° (SW) 1,614 - -33.6°
Drops below altitude 10° 21:02:16 10° 200° (SSW) 1,726 - -33.8°
Sets 21:05:48 0° 168° (SSE) 2,637 - -34.2°
